Waycross, GA

9:47 PM EST on December 03, 2016 (GMT -0500)
Waycross-Ware County

Weather History for KAYS - March, 2013

Change the Weather History Date:

Monday, March 25, 2013

  Actual Average (KAMG) Record (KAMG)
Temperature  
Mean Temperature 54 °F 62 °F  
Max Temperature 64 °F 74 °F 89 °F (1954)
Min Temperature 44 °F 50 °F 32 °F (1956)
Degree Days  
Heating Degree Days 11 4  
Month to date heating degree days 164  
Since 1 July heating degree days 1565  
Cooling Degree Days 0 1  
Month to date cooling degree days 25  
Year to date cooling degree days 41  
Growing Degree Days 4 (Base 50)    
Moisture  
Dew Point 34 °F    
Average Humidity 50    
Maximum Humidity 94    
Minimum Humidity 29    
Precipitation  
Precipitation 0.00 in 0.14 in 1.14 in (1994)
Month to date precipitation 3.89  
Year to date precipitation 11.95  
Snow  
Snow 0.00 in 0.00 in 0.00 in ()
Month to date snowfall 0.0  
Since 1 July snowfall 0.1  
Snow Depth -    
Sea Level Pressure  
Sea Level Pressure 29.86 in    
Wind  
Wind Speed 14 mph (WNW)    
Max Wind Speed 26 mph    
Max Gust Speed 38 mph    
Visibility 10 miles    
Events      
T = Trace of Precipitation, MM = Missing Value Source: NWS Daily Summary

Daily Weather History Graph

Daily Weather History Graph

Search for Another Location

Airport or City:

Trip Planner

Search our weather history database for the weather conditions in past years. The results will help you decide how hot, cold, wet, or windy it might be!

Date:

Astronomy

Mar. 25, 2013 Rise Set
Actual Time 7:26 AM EDT 7:44 PM EDT
Civil Twilight 7:02 AM EDT 8:08 PM EDT
Nautical Twilight 6:34 AM EDT 8:37 PM EDT
Astronomical Twilight 6:05 AM EDT 9:05 PM EDT
Moon 6:18 PM EDT (3/25) 6:04 AM EDT (3/25)
Length of Visible Light 13h 06m
Length of Day
12h 17m
Waxing Gibbous, 96% of the Moon is Illuminated
Mar 25
Waxing Gibbous
Mar 27
Full
Apr 3
Last Quarter
Apr 10
New
Apr 18
First Quarter

Hourly Weather History & Observations

Time (EDT) Temp. Windchill Dew Point Humidity Pressure Visibility Wind Dir Wind Speed Gust Speed Precip Events Conditions
12:15 AM 62.6 °F - 60.8 °F 94% 29.64 in 10.0 mi NNW 10.4 mph - N/A   Mostly Cloudy
12:35 AM 62.6 °F - 60.8 °F 94% 29.65 in 10.0 mi NNW 8.1 mph - N/A   Mostly Cloudy
12:55 AM 64.4 °F - 44.6 °F 49% 29.67 in 10.0 mi NW 16.1 mph 27.6 mph N/A   Mostly Cloudy
1:15 AM 62.6 °F - 39.2 °F 42% 29.68 in 10.0 mi West 15.0 mph 21.9 mph N/A   Overcast
1:35 AM 60.8 °F - 39.2 °F 45% 29.69 in 10.0 mi West 13.8 mph 18.4 mph N/A   Mostly Cloudy
1:55 AM 59.0 °F - 42.8 °F 55% 29.71 in 10.0 mi West 13.8 mph 21.9 mph N/A   Scattered Clouds
2:15 AM 57.2 °F - 42.8 °F 59% 29.71 in 10.0 mi WNW 16.1 mph 23.0 mph N/A   Clear
2:35 AM 55.4 °F - 42.8 °F 63% 29.72 in 10.0 mi WNW 13.8 mph 20.7 mph N/A   Clear
2:55 AM 55.4 °F - 42.8 °F 63% 29.73 in 10.0 mi WNW 12.7 mph - N/A   Clear
3:15 AM 53.6 °F - 42.8 °F 67% 29.73 in 10.0 mi WNW 10.4 mph 18.4 mph N/A   Clear
3:35 AM 53.6 °F - 41.0 °F 62% 29.73 in 10.0 mi WNW 16.1 mph 21.9 mph N/A   Clear
3:55 AM 53.6 °F - 41.0 °F 62% 29.74 in 10.0 mi WNW 13.8 mph 21.9 mph N/A   Clear
4:15 AM 51.8 °F - 39.2 °F 62% 29.74 in 10.0 mi WNW 13.8 mph 20.7 mph N/A   Unknown
4:35 AM 51.8 °F - 39.2 °F 62% 29.75 in 10.0 mi WNW 9.2 mph 12.7 mph N/A   Unknown
4:55 AM 51.8 °F - 39.2 °F 62% 29.76 in 10.0 mi NW 11.5 mph - N/A   Unknown
5:15 AM 50.0 °F - 39.2 °F 66% 29.77 in 10.0 mi WNW 13.8 mph - N/A   Unknown
5:35 AM 48.2 °F - 39.2 °F 71% 29.79 in 10.0 mi NW 20.7 mph 26.5 mph N/A   Unknown
5:55 AM 48.2 °F - 37.4 °F 66% 29.79 in 10.0 mi WNW 15.0 mph 23.0 mph N/A   Unknown
6:15 AM 46.4 °F 41.1 °F 37.4 °F 71% 29.80 in 10.0 mi NW 11.5 mph 17.3 mph N/A   Unknown
6:35 AM 46.4 °F 41.5 °F 37.4 °F 71% 29.82 in 10.0 mi WNW 10.4 mph 19.6 mph N/A   Unknown
6:55 AM 44.6 °F 39.2 °F 35.6 °F 71% 29.83 in 10.0 mi WNW 10.4 mph 23.0 mph N/A   Unknown
7:15 AM 44.6 °F 39.2 °F 35.6 °F 71% 29.84 in 10.0 mi WNW 10.4 mph 18.4 mph N/A   Unknown
7:35 AM 44.6 °F 38.1 °F 33.8 °F 66% 29.86 in 10.0 mi WNW 13.8 mph 21.9 mph N/A   Unknown
7:55 AM 44.6 °F 38.4 °F 33.8 °F 66% 29.86 in 10.0 mi WNW 12.7 mph 18.4 mph N/A   Unknown
8:15 AM 44.6 °F 37.8 °F 33.8 °F 66% 29.87 in 10.0 mi WNW 15.0 mph 24.2 mph N/A   Unknown
8:35 AM 44.6 °F 38.1 °F 32.0 °F 61% 29.88 in 10.0 mi WNW 13.8 mph 24.2 mph N/A   Unknown
8:55 AM 46.4 °F 39.5 °F 33.8 °F 62% 29.88 in 10.0 mi WNW 17.3 mph 21.9 mph N/A   Unknown
9:15 AM 46.4 °F 39.0 °F 33.8 °F 62% 29.88 in 10.0 mi West 19.6 mph 24.2 mph N/A   Unknown
9:35 AM 48.2 °F - 33.8 °F 58% 29.88 in 10.0 mi WNW 18.4 mph 27.6 mph N/A   Unknown
9:55 AM 48.2 °F - 33.8 °F 58% 29.89 in 10.0 mi WNW 15.0 mph 20.7 mph N/A   Unknown
10:15 AM 48.2 °F - 33.8 °F 58% 29.89 in 10.0 mi WNW 17.3 mph 24.2 mph N/A   Unknown
10:35 AM 51.8 °F - 35.6 °F 54% 29.89 in 10.0 mi West 13.8 mph 20.7 mph N/A   Unknown
10:55 AM 50.0 °F - 33.8 °F 54% 29.90 in 10.0 mi West 19.6 mph - N/A   Clear
11:15 AM 51.8 °F - 33.8 °F 50% 29.90 in 10.0 mi WNW 17.3 mph 24.2 mph N/A   Clear
11:35 AM 53.6 °F - 33.8 °F 47% 29.90 in 10.0 mi WNW 18.4 mph 25.3 mph N/A   Clear
11:55 AM 53.6 °F - 32.0 °F 44% 29.90 in 10.0 mi WNW 20.7 mph 25.3 mph N/A   Clear
12:15 PM 53.6 °F - 33.8 °F 47% 29.90 in 10.0 mi WNW 16.1 mph 20.7 mph N/A   Clear
12:35 PM 55.4 °F - 32.0 °F 41% 29.90 in 10.0 mi WNW 16.1 mph 23.0 mph N/A   Clear
12:55 PM 57.2 °F - 32.0 °F 38% 29.90 in 10.0 mi WNW 17.3 mph 23.0 mph N/A   Clear
1:15 PM 55.4 °F - 32.0 °F 41% 29.89 in 10.0 mi WNW 16.1 mph 29.9 mph N/A   Clear
1:35 PM 57.2 °F - 30.2 °F 36% 29.89 in 10.0 mi WNW 20.7 mph 27.6 mph N/A   Clear
1:55 PM 57.2 °F - 30.2 °F 36% 29.89 in 10.0 mi WNW 19.6 mph 27.6 mph N/A   Clear
2:15 PM 57.2 °F - 28.4 °F 33% 29.88 in 10.0 mi WNW 21.9 mph 31.1 mph N/A   Clear
2:35 PM 57.2 °F - 30.2 °F 36% 29.88 in 10.0 mi West 23.0 mph 32.2 mph N/A   Clear
2:55 PM 59.0 °F - 30.2 °F 34% 29.87 in 10.0 mi West 26.5 mph 38.0 mph N/A   Clear
3:15 PM 59.0 °F - 30.2 °F 34% 29.88 in 10.0 mi WNW 21.9 mph 29.9 mph N/A   Clear
3:35 PM 59.0 °F - 30.2 °F 34% 29.87 in 10.0 mi West 18.4 mph 28.8 mph N/A   Clear
3:55 PM 59.0 °F - 30.2 °F 34% 29.87 in 10.0 mi West 17.3 mph 27.6 mph N/A   Clear
4:15 PM 59.0 °F - 30.2 °F 34% 29.87 in 10.0 mi WNW 18.4 mph 28.8 mph N/A   Clear
4:35 PM 59.0 °F - 30.2 °F 34% 29.87 in 10.0 mi WNW 23.0 mph 29.9 mph N/A   Clear
4:55 PM 59.0 °F - 30.2 °F 34% 29.87 in 10.0 mi NW 19.6 mph 26.5 mph N/A   Clear
5:15 PM 59.0 °F - 30.2 °F 34% 29.87 in 10.0 mi WNW 17.3 mph 21.9 mph N/A   Clear
5:35 PM 59.0 °F - 30.2 °F 34% 29.88 in 10.0 mi WNW 18.4 mph 26.5 mph N/A   Clear
5:55 PM 59.0 °F - 28.4 °F 31% 29.88 in 10.0 mi West 11.5 mph 24.2 mph N/A   Clear
6:15 PM 57.2 °F - 24.8 °F 29% 29.88 in 10.0 mi WNW 20.7 mph 29.9 mph N/A   Clear
6:35 PM 57.2 °F - 26.6 °F 31% 29.89 in 10.0 mi WNW 16.1 mph 26.5 mph N/A   Clear
6:55 PM 57.2 °F - 26.6 °F 31% 29.90 in 10.0 mi WNW 12.7 mph 21.9 mph N/A   Clear
7:15 PM 55.4 °F - 26.6 °F 33% 29.91 in 10.0 mi NW 12.7 mph 23.0 mph N/A   Clear
7:35 PM 55.4 °F - 26.6 °F 33% 29.92 in 10.0 mi WNW 12.7 mph 24.2 mph N/A   Clear
7:55 PM 53.6 °F - 24.8 °F 33% 29.93 in 10.0 mi WNW 16.1 mph 25.3 mph N/A   Clear
8:15 PM 53.6 °F - 24.8 °F 33% 29.94 in 10.0 mi WNW 15.0 mph 25.3 mph N/A   Clear
8:35 PM 51.8 °F - 24.8 °F 35% 29.95 in 10.0 mi WNW 12.7 mph 18.4 mph N/A   Clear
8:55 PM 51.8 °F - 26.6 °F 38% 29.96 in 10.0 mi WNW 8.1 mph - N/A   Clear
9:15 PM 50.0 °F - 26.6 °F 40% 29.97 in 10.0 mi WNW 6.9 mph - N/A   Unknown
9:35 PM 48.2 °F - 26.6 °F 43% 29.98 in 10.0 mi WNW 6.9 mph - N/A   Unknown
9:55 PM 48.2 °F - 28.4 °F 46% 29.99 in 10.0 mi WNW 8.1 mph - N/A   Unknown
10:15 PM 48.2 °F - 26.6 °F 43% 30.00 in 10.0 mi WNW 9.2 mph - N/A   Unknown
10:35 PM 48.2 °F - 26.6 °F 43% 30.01 in 10.0 mi WNW 9.2 mph - N/A   Unknown
10:55 PM 48.2 °F - 28.4 °F 46% 30.02 in 10.0 mi WNW 6.9 mph - N/A   Unknown
11:15 PM 48.2 °F - 28.4 °F 46% 30.03 in 10.0 mi WNW 9.2 mph - N/A   Unknown
11:35 PM 48.2 °F - 30.2 °F 50% 30.03 in 10.0 mi WNW 8.1 mph - N/A   Unknown
11:55 PM 46.4 °F 42.4 °F 30.2 °F 53% 30.04 in 10.0 mi NW 8.1 mph - N/A   Unknown